Location: ??????
(48.1889°N, 37.7589°E)
Time: 10:06:22
(UTC+00:00)

Daily predictions for brighter satellites

Satellite Brightness Start Highest point End
(mag) Time Altitude Azimuth Time Altitude Azimuth Time Altitude Azimuth
NOSS 3-1 (A) 4.1 13:58:47 10° NW 14:06:03 67° NE 14:14:37 10° SE
NOSS 3-1 (C) 4.2 13:59:30 10° NW 14:06:55 88° SW 14:15:39 10° SE
USA 234 3.3 14:00:39 10° ESE 14:07:10 74° NNE 14:13:42 10° NW
Cosmos 1408 Rocket 3.5 14:05:22 10° N 14:09:42 64° ENE 14:14:03 10° SSE
COSMOS 2455 4.2 14:08:36 10° SSE 14:12:44 20° ESE 14:16:53 10° ENE
Envisat 4.5 14:08:13 10° S 14:13:01 42° W 14:17:52 10° NNW
COSMOS 2406 4.3 14:08:38 10° SSE 14:13:17 26° ESE 14:17:56 10° NE
NOAA 11 4.3 14:08:49 10° SSE 14:14:15 85° WSW 14:19:44 10° NNW
SJ-7 4.5 14:11:12 10° SSE 14:15:24 85° ENE 14:19:40 10° NNW
NOAA 12 4.1 14:10:33 10° SSE 14:15:49 68° ENE 14:21:08 10° N
Okean O Rocket 3.2 14:14:02 10° E 14:16:28 15° ENE 14:18:55 10° NNE
Cosmos 1743 Rocket 3.9 14:13:08 10° N 14:17:16 42° ENE 14:21:22 10° SSE
Iridium 2 4.0 14:14:08 10° N 14:17:53 68° W 14:21:36 10° S
Meteor PRIRODA 3.5 14:14:31 10° SSE 14:18:07 72° ENE 14:21:45 10° N
ATLAS CENTAUR R/B 3.1 14:15:05 10° W 14:18:46 28° NW 14:22:41 10° NNE
Cosmos 1833 Rocket 3.3 14:15:18 10° S 14:20:23 37° ESE 14:25:30 10° NE
ARGOS 4.3 14:18:14 10° ESE 14:22:11 21° ENE 14:26:08 10° NNE
USA 276 2.8 14:20:01 10° WNW 14:23:06 54° SSW 14:26:09 10° SE
Cosmos 1782 4.2 14:22:03 10° SE 14:24:56 19° E 14:27:50 10° NE
Cosmos 1464 Rocket 4.1 14:18:54 10° S 14:25:17 86° E 14:31:43 10° N
Spot 1 4.3 14:22:01 10° NNE 14:26:43 78° ESE 14:31:38 10° S
USA 308 3.6 14:22:54 10° W 14:26:58 42° NNW 14:30:47 11° ENE
Nadezhda 4 Rocket 4.0 14:26:55 10° N 14:33:17 85° E 14:39:38 10° S
SJ 16-02 3.6 14:29:49 10° NW 14:33:39 30° W 14:37:28 10° SSW
Cosmos 1340 Rocket 2.8 14:30:32 10° N 14:34:38 82° E 14:38:43 10° SSE
CZ-4C R/B 4.3 14:31:08 10° N 14:34:54 46° WNW 14:38:28 10° SW
CZ-4B R/B 3.8 14:33:26 10° SE 14:38:12 33° ENE 14:42:55 10° N
CZ-4C R/B 3.2 14:32:16 10° NW 14:38:47 44° NE 14:46:28 10° ESE
Cosmos 2360 4.2 14:33:07 10° NNW 14:38:50 63° ENE 14:44:29 10° SE
Meteor 1-20 Rocket 4.3 14:34:14 10° N 14:40:03 70° ENE 14:45:54 10° SSE
CZ-2C R/B 3.6 14:37:18 10° NE 14:41:26 23° E 14:45:32 10° SE
ISS -3.5 14:38:11 10° WNW 14:41:33 55° NNE 14:44:11 15° E
CZ-2D R/B 3.7 14:38:08 10° SE 14:41:41 37° ENE 14:45:14 10° N
Cosmos 1606 3.7 14:38:12 10° SSW 14:41:50 47° WNW 14:45:31 10° N
Lacrosse 5 rocket 2.5 14:39:45 10° NW 14:43:01 25° NNE 14:45:18 16° ENE
Cosmos 540 Rocket 4.0 14:39:24 10° S 14:44:06 39° ESE 14:48:44 11° NE
GEOS 3 Rocket 4.5 14:39:53 10° E 14:44:15 30° NNE 14:48:43 10° NNW
Cosmos 1500 Rocket 3.6 14:41:47 10° N 14:46:15 88° E 14:50:40 10° S
Cosmos 1092 Rocket 4.0 14:41:37 10° N 14:47:58 67° ENE 14:54:16 10° SSE
MOS 1-B 4.5 14:43:03 10° SE 14:48:37 52° ENE 14:54:13 10° N
CZ-2C R/B 3.7 14:45:10 10° S 14:50:00 56° W 14:54:43 10° NNW
SMAP 3.0 14:45:42 10° SSE 14:50:21 89° E 14:55:04 10° NNW
CZ-4B R/B 3.8 14:47:07 10° S 14:51:05 51° W 14:54:52 10° NNW
Cosmos 44 Rocket 4.4 14:47:53 10° NNW 14:51:59 25° NNE 14:54:16 18° ENE
Cosmos 1428 Rocket 4.4 14:46:45 10° N 14:52:50 63° ENE 14:58:56 10° SSE
Cosmos 468 Rocket 3.9 14:48:18 10° SSW 14:53:26 76° ESE 14:58:39 10° NNE
Cosmos 1500 3.5 14:50:35 10° N 14:54:09 40° ENE 14:57:40 10° SSE
Cosmos 1898 Rocket 3.5 14:48:57 10° NNW 14:54:15 90° E 14:59:28 10° SSE
USA 305 3.7 14:50:26 10° WNW 14:54:23 37° N 14:56:56 19° NE
Cosmos 1805 Rocket 3.4 14:53:28 10° N 14:57:49 70° E 15:02:08 10° SSE
Cosmos 2360 Rocket 3.9 14:55:25 10° N 14:58:00 13° NNE 14:58:40 13° NE
Sich 1 3.0 14:54:26 10° N 14:58:39 56° ENE 15:02:53 10° SSE
Cosmos 1933 3.2 14:56:55 10° S 15:00:56 71° E 15:04:59 10° NNE
Cosmos 2221 3.9 14:58:49 10° SW 15:02:50 39° WNW 15:06:55 10° N
PSLV R/B 3.5 15:02:58 10° SSE 15:06:39 82° ENE 15:10:23 10° NNW
Cosmos 1627 Rocket 4.4 15:02:24 10° N 15:08:38 80° E 15:14:46 10° SSE
NOSS 2-2 (C) 4.2 15:05:23 10° NW 15:10:23 72° NE 15:17:26 10° SE
Cosmos 2034 Rocket 4.5 15:05:28 10° SSW 15:11:33 63° WNW 15:17:41 10° N
Meteor 1-14 Rocket 4.4 15:08:31 10° N 15:14:13 54° ENE 15:20:00 10° SSE
H-2A R/B 1.9 15:09:02 10° SSE 15:14:13 77° ENE 15:19:17 10° N
deb Chang Zheng 4 3.6 15:10:49 10° SSE 15:14:59 53° ENE 15:19:12 10° N
USA 267 3.4 15:10:52 18° NE 15:15:52 71° NNW 15:22:22 10° WSW
MOS 1-B Rocket 4.0 15:11:32 10° NNE 15:17:20 62° ESE 15:23:51 10° S
Cosmos 2279 Rocket 4.1 15:11:52 10° SSE 15:17:47 49° E 15:23:42 10° NNE
Cosmos 2322 Rocket 3.4 15:13:30 10° N 15:17:52 22° NE 15:18:15 22° NE
Cosmos 1697 Rocket 3.2 15:15:47 10° NNW 15:21:19 63° WSW 15:26:51 10° SSE
Cosmos 1666 2.7 15:20:14 10° N 15:23:52 48° ENE 15:27:27 10° SSE
SJ-11-01 4.3 15:19:50 10° SSE 15:24:29 58° ENE 15:29:09 10° N
Cosmos 2369 3.7 15:18:47 10° NNW 15:24:33 86° WSW 15:30:17 10° SSE
ATLAS 5 CENTAUR R/B 2.6 15:16:59 10° NW 15:24:52 41° NNE 15:25:50 34° ENE
Cosmos 1980 Rocket 2.1 15:19:32 10° NNW 15:25:15 79° ENE 15:30:54 10° SSE
USA 306 3.7 15:22:38 10° WNW 15:26:37 37° N 15:27:44 31° NE
ERBS 4.0 15:24:13 10° WNW 15:26:41 20° NNW 15:27:11 19° N
Meteor 1-5 Rocket 4.3 15:21:00 10° N 15:26:57 61° ENE 15:32:48 10° SSE
Meteor 2-21 4.5 15:22:12 10° N 15:28:19 84° W 15:34:22 10° S
Cosmos 1763 Rocket 4.1 15:23:32 10° SW 15:28:30 55° WNW 15:33:29 10° NNE
COSMO-SKYMED 1 2.6 15:27:55 25° NNE 15:30:19 57° E 15:34:35 10° S
SL-24 R/B - RUBIN 2 3.5 15:26:38 10° NW 15:31:14 89° SSW 15:34:49 15° SE
Cosmos 1634 Rocket 4.0 15:26:53 10° S 15:33:13 87° W 15:39:36 10° N
Cosmos 841 Rocket 3.3 15:28:38 10° SSW 15:33:47 79° ESE 15:37:08 22° NNE
SL-16 R/B 2.8 15:30:01 10° NNW 15:35:07 33° NE 15:35:31 32° ENE
ATLAS CENTAUR R/B 2.7 15:26:39 10° SW 15:35:49 80° NW 15:37:37 37° NE
Cosmos 1937 Rocket 4.2 15:30:37 10° NNW 15:35:50 57° WSW 15:41:02 10° S
Cosmos 1125 Rocket 4.2 15:32:22 10° N 15:36:47 33° NE 15:36:47 33° NE
Helios 1B 4.4 15:37:05 29° NNE 15:39:12 69° ESE 15:43:30 10° S
Cosmos 2082 Rocket 2.1 15:33:58 10° SSW 15:39:36 70° ESE 15:42:35 29° NE
Cosmos 2026 Rocket 4.4 15:33:37 10° NNW 15:39:42 64° W 15:45:41 10° S
Cosmos 1812 2.5 15:36:35 10° S 15:40:25 76° E 15:41:27 46° NNE
Cosmos 1633 Rocket 2.9 15:37:26 10° N 15:41:50 72° E 15:46:12 10° SSE
ATLAS 2AS CENTAUR R/B 4.2 15:36:51 10° NW 15:42:52 24° N 15:46:02 19° NNE
YAOGAN 1 3.9 15:45:11 25° NNE 15:45:11 25° NNE 15:47:11 10° N
Cosmos 2333 Rocket 4.1 15:40:02 10° N 15:42:09 14° NNE 15:42:09 14° NNE
USA 307 3.6 15:40:57 10° WNW 15:44:58 38° N 15:45:19 37° NNE
Cosmos 2278 3.6 15:43:19 10° NNW 15:49:05 86° ENE 15:54:46 10° SSE
Cosmos 372 Rocket 4.3 15:45:13 10° NNW 15:50:25 66° WSW 15:55:36 10° S
USA 234 4.4 15:44:20 10° SSE 15:50:29 42° SW 15:56:38 10° WNW
Cosmos 1655 Rocket 4.0 15:45:35 10° N 15:51:55 58° ENE 15:58:10 10° SSE
Okean O Rocket 1.7 15:47:46 10° S 15:52:13 80° WSW 15:56:43 10° NNW
COSMOS 2406 3.7 15:51:32 10° SW 15:57:12 58° WNW 16:01:00 21° NNE
COSMOS 2455 2.8 15:51:54 10° SW 15:57:56 84° NW 16:00:45 34° NNE
Meteor 2-15 4.4 15:52:15 10° S 15:58:14 60° E 16:01:34 27° NNE
ATLAS CENTAUR R/B 4.0 15:57:33 10° NNW 15:59:09 12° NNW 16:00:08 11° N
Cosmos 1151 Rocket 3.1 15:55:13 10° SSW 15:59:31 77° W 16:01:14 36° N
Cosmos 1782 4.2 15:57:13 10° SW 16:00:58 38° WNW 16:04:07 14° N
ARGOS 3.4 15:56:32 10° S 16:01:56 71° WSW 16:07:21 10° NNW
Cosmos 2180 Rocket 4.4 15:57:37 10° S 16:03:58 81° E 16:10:17 10° N
Cosmos 1833 Rocket 3.7 15:58:56 10° SW 16:04:15 42° NW 16:08:05 18° N
Cosmos 1666 Rocket 4.3 16:02:14 10° NNW 16:06:36 53° W 16:10:53 10° S
USA 308 3.9 16:03:28 10° WNW 16:06:49 37° NNW 16:06:49 37° NNW
Meteor 2-6 Rocket 4.1 16:02:31 10° S 16:08:18 83° E 16:11:08 31° NNE
Cosmos 2219 Rocket 4.2 16:09:21 10° N 16:10:38 14° N 16:10:38 14° N
Cosmos 1328 Rocket 3.6 16:09:13 10° SSW 16:13:39 78° W 16:13:46 77° WNW
Meteor 2-8 Rocket 4.4 16:11:40 10° S 16:17:49 84° W 16:23:55 11° N
SKYMED 2 4.4 16:16:31 29° NNW 16:18:21 48° WNW 16:22:31 10° SW
ISS -1.8 16:15:06 10° WNW 16:17:11 30° W 16:17:11 30° W
CZ-4B R/B 4.3 16:13:32 10° S 16:18:39 42° W 16:23:44 10° NNW
NOAA 15 4.5 16:13:43 10° SSE 16:19:01 88° WSW 16:24:20 10° NNW
CZ-4 R/B 4.1 16:23:49 10° NNW 16:23:49 10° NNW 16:23:53 10° NNW
Cosmos 2298 Rocket 4.0 16:14:58 10° NNW 16:19:52 72° NNE 16:19:52 72° NNE
Cosmos 1570 Rocket 4.0 16:15:39 10° SSW 16:20:54 79° WNW 16:21:37 65° N
GEOS 3 Rocket 3.6 16:21:01 61° SSE 16:21:56 80° SW 16:27:10 10° NW
CZ-2C R/B 3.2 16:17:52 15° N 16:22:04 53° WNW 16:27:04 10° SW
Lacrosse 5 rocket 2.7 16:18:41 10° NW 16:20:54 32° NW 16:20:54 32° NW
Landsat 5 4.1 16:23:53 53° W 16:23:53 53° W 16:27:21 10° SSW
SL-08 RB Rocket 4.3 16:20:38 10° S 16:25:11 56° W 16:29:45 10° NNW
Meteor 1-11 Rocket 3.6 16:20:09 10° N 16:25:14 72° NNE 16:25:14 72° NNE
Meteor 1-10 Rocket 4.1 16:20:17 10° S 16:26:05 85° E 16:26:29 78° NNE
CZ-4C R/B 3.2 16:20:40 10° NW 16:27:51 68° SW 16:34:47 16° SSE
Cosmos 1818 3.5 16:22:49 10° NW 16:28:20 84° SW 16:28:21 84° SW
Cosmos 1814 Rocket 4.4 16:23:43 10° SW 16:28:53 60° WNW 16:29:52 51° NNW
Cosmos 44 Rocket 3.8 16:29:07 10° NW 16:33:01 54° NW 16:33:01 54° NW
Cosmos 2360 Rocket 3.7 16:38:03 10° NNW 16:40:26 24° N 16:40:26 24° N
USA 267 3.9 16:58:13 43° N 16:58:24 43° N 17:04:29 10° WNW
Cosmos 2322 Rocket 3.4 16:56:56 10° NNW 17:00:05 34° NNW 17:00:05 34° NNW
SL-16 R/B 3.6 17:13:59 10° NW 17:17:26 35° WNW 17:17:26 35° WNW
Cosmos 2082 Rocket 4.0 17:19:33 10° W 17:24:14 26° NW 17:24:28 25° NW
ATLAS 2AS CENTAUR R/B 4.3 17:29:32 10° NW 17:33:28 26° NNW 17:33:28 26° NNW
